Regional Weather Roundup
Issued by NWS

Home | Current Version | Previous Version | Graphics & Text | Print | Product List | Glossary On
Versions: 1 2 3 4 5 6 7 8 9 10 11 12 13 14 15 16 17 18 19 20 21 22 23 24 25 26 27 28 29 30 31 32 33 34 35 36 37 38 39 40 41 42 43 44 45 46 47 48 49 50
000
ASUS43 KLOT 032312
RWRIL

ILLINOIS REGIONAL WEATHER ROUNDUP
NATIONAL WEATHER SERVICE CHICAGO/ROMEOVILLE IL
500 PM CST SAT DEC 03 2016

NOTE: "FAIR" INDICATES FEW OR NO CLOUDS BELOW 12,000 FEET WITH NO
SIGNIFICANT WEATHER AND/OR OBSTRUCTIONS TO VISIBILITY.

* THESE STATIONS ARE NOT UNDER NWS QUALITY CONTROL. THEY ALSO MAY NOT
  REPORT WEATHER SUCH AS PRECIPITATION OR FOG.

ILZ001-002-007-009-015-016-024-040000-
NORTHWEST ILLINOIS

CITY           SKY/WX    TMP DP  RH WIND       PRES   REMARKS
MOLINE         PTCLDY    35  27  72 SE6       30.28F WCI  30
STERLING*      CLOUDY    35  27  72 CALM      30.31F
SAVANNA*       CLOUDY    37  27  67 SW5       30.29S WCI  33
$$

ILZ003-004-008-010-011-017-018-040000-
NORTH CENTRAL ILLINOIS

CITY           SKY/WX    TMP DP  RH WIND       PRES   REMARKS
ROCKFORD       CLOUDY    35  25  66 N3        30.31F
FREEPORT*      CLOUDY    32  27  81 CALM      30.30F
ROCHELLE*      CLOUDY    35  30  82 CALM      30.29F
DE KALB*       CLOUDY    33  28  80 CALM      30.30F
$$

ILZ005-006-012>014-019>023-040000-
NORTHEAST ILLINOIS

CITY           SKY/WX    TMP DP  RH WIND       PRES   REMARKS
CHICAGO-OHARE  MOCLDY    32  23  69 CALM      30.30F
CHICAGO-MIDWAY PTCLDY    33  22  63 CALM      30.31F
AURORA         CLOUDY    34  26  72 CALM      30.30F
LANSING*       CLOUDY    33  27  79 W5        30.32F WCI  29
JOLIET*        MOCLDY    31  27  84 CALM      30.32F
WAUKEGAN       CLOUDY    32  23  69 CALM      30.30F
DUPAGE AIRPORT CLOUDY    32  24  72 CALM      30.29F
KANKAKEE*      CLOUDY    33  26  77 CALM      30.33F
WHEELING       MOCLDY    32  22  66 CALM      30.32F
MORRIS*        MOCLDY    31  26  83 CALM      30.31S
ROMEOVILLE*    CLOUDY    31  28  87 CALM      30.31F
NORTHERLY ISL    N/A     34  22  61 W6          N/A  WCI  29
$$

LMZ740>746-040000-
SOUTHERN LAKE MICHIGAN

STATION/POSITION SKY/WX   TEMP    WIND        PRES    VSBY  WAVE
                          AIR SEA DIR/SP/G                  HT/PER
                          (F)     (DEG/KT/KT) (MB)    (MI)  (FT/S)
SOUTHERN BUOY              35 48  270/  8/ 14 1026.5F         1/ 3
HARRISON CRIB              35     290/  3/  5   N/A
BURNHAM HARBOR             34     250/  4/  6   N/A
CALUMET HARBOR             33     270/  3/  5 1026.0F
BURNS HARBOR               35     230/  6/ 10 1027.1F
MICHIGAN CITY              35     220/  9/ 11   N/A
$$

ILZ025>027-034>036-040-047-049-050-058-095>099-040000-
WEST-CENTRAL ILLINOIS

CITY           SKY/WX    TMP DP  RH WIND       PRES   REMARKS
QUINCY         CLOUDY    40  32  73 E8        30.25S
GALESBURG*     CLOUDY    33  28  79 E3        30.28F
MACOMB*        PTCLDY    35  32  86 E8        30.30S WCI  29
JACKSONVILLE*  CLOUDY    38  33  83 E8        30.27F WCI  32
PITTSFIELD*    MOCLDY    40  34  79 SE5       30.28R
$$

ILZ028>032-037-038-041>044-048-051>054-059>061-040000-
CENTRAL ILLINOIS

CITY           SKY/WX    TMP DP  RH WIND       PRES   REMARKS
PONTIAC        CLOUDY    34  28  79 CALM      30.32F
BLOOMINGTON    CLOUDY    34  28  79 NE7       30.31S WCI  28
DECATUR        CLOUDY    36  31  82 E6        30.30F WCI  31
PEORIA         CLOUDY    33  26  75 NE5       30.30F WCI  29
LACON*         CLEAR     31  26  83 CALM      30.31F
LINCOLN*       CLOUDY    35  31  86 NE5       30.30F WCI  31
SPRINGFIELD    PTCLDY    38  31  76 E7        30.30F WCI  33
TAYLORVILLE    CLOUDY    37  32  83 E5        30.29F WCI  33
$$

ILZ033-039-045-046-055>057-062-063-040000-
EAST-CENTRAL ILLINOIS

CITY           SKY/WX    TMP DP  RH WIND       PRES   REMARKS
CHAMPAIGN      PTCLDY    33  27  78 NE6       30.31F WCI  28
RANTOUL*       CLOUDY    35  29  78 N8        30.31F WCI  29
MATTOON        CLOUDY    35  30  82 NE6       30.29F WCI  30
PARIS*         CLOUDY    35  30  82 CALM      30.33S
$$

ILZ079-100>102-040000-
SOUTHWEST ILLINOIS

CITY           SKY/WX    TMP DP  RH WIND       PRES   REMARKS
ALTON          CLOUDY    37  32  81 SE5       30.28F WCI  34
BELLEVILLE     CLOUDY    41  34  76 E2        30.27F
CAHOKIA*       CLOUDY    42  31  64 SE5       30.28F
SPARTA*        CLOUDY    40  33  76 CALM      30.29S
$$

ILZ064>066-069>071-074>076-080>082-084>086-088>090-092>094-040000-
SOUTH-CENTRAL ILLINOIS

CITY           SKY/WX    TMP DP  RH WIND       PRES   REMARKS
CARBONDALE     CLOUDY    42  32  67 E5        30.28S
CAIRO*         CLOUDY    42  32  67 E7        30.28R
EFFINGHAM*     CLOUDY    40  33  76 CALM      30.32S
MARION         CLOUDY    43  32  65 E12       30.29S
CENTRALIA*     CLOUDY    42  33  72 E3        30.28F
SALEM*         CLOUDY    42  32  67 CALM      30.30S
METROPOLIS*    CLOUDY    42  32  67 CALM      30.29R HAZE
$$

ILZ067-068-072-073-078-083-087-091-040000-
SOUTHEAST ILLINOIS

CITY           SKY/WX    TMP DP  RH WIND       PRES   REMARKS
LAWRENCEVILLE  CLOUDY    40  31  70 NE6       30.31F
FLORA*         CLOUDY    43  33  69 CALM      30.31S
FAIRFIELD*     MOCLDY    41  33  74 CALM      30.30S
HARRISBURG*    CLOUDY    41  33  73 NE5       30.29S
ROBINSON*      CLOUDY    37  31  78 N3        30.33S
CARMI*         PTCLDY    40  34  80 NE6       30.30S
$$

ABBREVIATIONS USED IN REMARKS
   TC - TEMPERATURE IN CELSIUS
  WCI - WIND CHILL INDEX
   HX - HEAT INDEX
  VSB - VISIBILITY
$$





USA.gov is the U.S. government's official web portal to all federal, state and local government web resources and services.